Find Kosmos-1805

NORAD ID: 17191 Int'l Des: 1986-097 Owner: GRU Country: SU operational
LEOCIRCULARPOLAR

現在のビュー

3D地球を読み込み中...

Kosmos-1805について

説明を読み込み中...

次回通過

Passes for default location (London). Set your location on the main map for personalized predictions.

高度履歴

Loading altitude history...

軌道要素

1 17191U 86097A 26151.06175860 .00023678 00000-0 40433-3 0 9990
2 17191 82.4580 9.2191 0001863 153.4026 206.7322 15.51168161159887
Epoch: May 31, 2026 • Age: 7 hours

現在のステータス

高度 442.2 km
速度 7.64 km/s
衛星直下点 -82.49°S, 99.87°W
打ち上げ日 Dec 10, 1986
運用期間 39.4 years
タイプ other

技術仕様

分類 Payload
質量 1750.00 kg
乾燥質量 1750.00 kg
総質量 1750.00 kg
長さ 3.20 m
直径 1.30 m
スパン 13.10 m
形状 Cyl + Ant
製造者 YUZH
バスタイプ Tselina-D
フェーズステータス In Orbit
所有者/国 GRU/SU

Most Searched